| time (UTC) | temp F | wind direction | speed MPH | gust MPH | rain 1hr in | rain 24hr in | rain mn in | humidity % | barometer mb |
| 20260506073033 | 37 | 340 | 2.0 | 8.0 | 0.00 | 0.00 | 0.00 | 59 | 1015.5 |
| 20260506071527 | 37 | 326 | 3.0 | 6.0 | 0.00 | 0.00 | 0.00 | 59 | 1015.5 |
| 20260506061519 | 38 | 327 | 4.0 | 9.0 | 0.00 | 0.00 | 0.00 | 55 | 1015.5 |
| 20260506044505 | 40 | 323 | 3.0 | 10.0 | 0.00 | 0.00 | 0.00 | 54 | 1014.9 |
| 20260506043004 | 41 | 331 | 6.0 | 12.0 | 0.00 | 0.00 | 0.00 | 54 | 1014.8 |
| 20260506041505 | 41 | 333 | 4.0 | 8.0 | 0.00 | 0.00 | 0.00 | 54 | 1014.7 |
| 20260506040004 | 42 | 314 | 3.0 | 8.0 | 0.00 | 0.00 | 0.00 | 53 | 1014.8 |
| 20260506034505 | 42 | 321 | 4.0 | 8.0 | 0.00 | 0.00 | 0.00 | 53 | 1014.7 |
| 20260506033002 | 42 | 313 | 4.0 | 13.0 | 0.00 | 0.00 | 0.00 | 51 | 1014.6 |
| 20260506031600 | 43 | 338 | 5.0 | 10.0 | 0.00 | 0.00 | 0.00 | 50 | 1014.5 |
| 20260506030100 | 44 | 346 | 3.0 | 11.0 | 0.00 | 0.00 | 0.00 | 51 | 1014.3 |
| 20260506024600 | 44 | 317 | 3.0 | 15.0 | 0.00 | 0.00 | 0.00 | 49 | 1014.1 |
| 20260506023100 | 45 | 331 | 8.0 | 15.0 | 0.00 | 0.00 | 0.00 | 46 | 1013.7 |
| 20260506021606 | 45 | 315 | 6.0 | 11.0 | 0.00 | 0.00 | 0.00 | 46 | 1013.6 |
| 20260506020052 | 45 | 314 | 6.0 | 14.0 | 0.00 | 0.00 | 0.00 | 45 | 1013.4 |
| 20260506014550 | 46 | 355 | 5.0 | 13.0 | 0.00 | 0.00 | 0.00 | 44 | 1013.1 |
| 20260506013048 | 46 | 319 | 7.0 | 18.0 | 0.00 | 0.00 | 0.00 | 43 | 1012.9 |
| 20260506011546 | 47 | 325 | 10.0 | 18.0 | 0.00 | 0.00 | 0.00 | 42 | 1012.7 |
| 20260506010055 | 48 | 323 | 10.0 | 18.0 | 0.00 | 0.00 | 0.00 | 42 | 1012.6 |
| 20260506004549 | 49 | 327 | 7.0 | 13.0 | 0.00 | 0.00 | 0.00 | 40 | 1012.5 |
| 20260506003043 | 49 | 5 | 8.0 | 16.0 | 0.00 | 0.00 | 0.00 | 40 | 1012.3 |
| 20260506001546 | 49 | 320 | 9.0 | 19.0 | 0.00 | 0.00 | 0.00 | 39 | 1012.2 |
| 20260506000042 | 49 | 315 | 5.0 | 18.0 | 0.00 | 0.00 | 0.00 | 39 | 1012.1 |
| 20260505234601 | 49 | 340 | 3.0 | 17.0 | 0.00 | 0.00 | 0.00 | 39 | 1011.9 |
| 20260505233043 | 51 | 259 | 7.0 | 16.0 | 0.00 | 0.00 | 0.00 | 37 | 1011.8 |
| 20260505231541 | 50 | 298 | 6.0 | 16.0 | 0.00 | 0.00 | 0.00 | 38 | 1011.9 |
| 20260505230039 | 52 | 257 | 5.0 | 17.0 | 0.00 | 0.00 | 0.00 | 37 | 1011.8 |
| 20260505224539 | 50 | 265 | 8.0 | 19.0 | 0.00 | 0.00 | 0.00 | 39 | 1011.9 |
| 20260505223040 | 50 | 338 | 5.0 | 14.0 | 0.00 | 0.00 | 0.00 | 40 | 1011.9 |
| 20260505221539 | 50 | 281 | 4.0 | 13.0 | 0.00 | 0.00 | 0.00 | 40 | 1011.8 |
| 20260505220041 | 50 | 298 | 8.0 | 20.0 | 0.00 | 0.00 | 0.00 | 40 | 1011.9 |
| 20260505214559 | 49 | 351 | 7.0 | 17.0 | 0.00 | 0.00 | 0.00 | 39 | 1011.9 |
| 20260505213037 | 49 | 276 | 10.0 | 21.0 | 0.00 | 0.00 | 0.00 | 38 | 1012.0 |
| 20260505211535 | 49 | 346 | 6.0 | 17.0 | 0.00 | 0.00 | 0.00 | 39 | 1012.0 |
| 20260505210034 | 50 | 278 | 8.0 | 17.0 | 0.00 | 0.00 | 0.00 | 39 | 1012.1 |
| 20260505204537 | 50 | 280 | 10.0 | 17.0 | 0.00 | 0.00 | 0.00 | 38 | 1012.1 |
| 20260505203038 | 49 | 226 | 8.0 | 17.0 | 0.00 | 0.00 | 0.00 | 38 | 1012.0 |
| 20260505201537 | 49 | 279 | 6.0 | 16.0 | 0.00 | 0.00 | 0.00 | 39 | 1012.2 |
| 20260505200032 | 49 | 252 | 6.0 | 13.0 | 0.00 | 0.00 | 0.00 | 39 | 1012.1 |
| 20260505194540 | 49 | 313 | 10.0 | 19.0 | 0.00 | 0.00 | 0.00 | 39 | 1012.2 |
| 20260505193034 | 49 | 238 | 8.0 | 16.0 | 0.00 | 0.00 | 0.00 | 39 | 1012.1 |
| 20260505191531 | 49 | 313 | 8.0 | 18.0 | 0.00 | 0.00 | 0.00 | 39 | 1012.1 |
| 20260505190030 | 49 | 315 | 10.0 | 19.0 | 0.00 | 0.00 | 0.00 | 39 | 1012.1 |
| 20260505184529 | 49 | 265 | 4.0 | 19.0 | 0.00 | 0.00 | 0.00 | 40 | 1012.2 |
| 20260505183030 | 49 | 295 | 10.0 | 21.0 | 0.00 | 0.00 | 0.00 | 39 | 1012.2 |
| 20260505181528 | 49 | 283 | 10.0 | 20.0 | 0.00 | 0.00 | 0.00 | 39 | 1012.3 |
| 20260505180051 | 48 | 290 | 8.0 | 15.0 | 0.00 | 0.00 | 0.00 | 39 | 1012.2 |
| 20260505174547 | 49 | 294 | 6.0 | 17.0 | 0.00 | 0.00 | 0.00 | 39 | 1012.2 |
| 20260505173032 | 49 | 290 | 9.0 | 18.0 | 0.00 | 0.00 | 0.00 | 37 | 1012.2 |
| 20260505171525 | 48 | 246 | 7.0 | 15.0 | 0.00 | 0.00 | 0.00 | 40 | 1012.4 |
| 20260505170023 | 47 | 279 | 7.0 | 12.0 | 0.00 | 0.00 | 0.00 | 39 | 1012.3 |
| 20260505164523 | 48 | 249 | 5.0 | 11.0 | 0.00 | 0.00 | 0.00 | 39 | 1012.3 |
| 20260505163024 | 48 | 284 | 3.0 | 12.0 | 0.00 | 0.00 | 0.00 | 39 | 1012.3 |
| 20260505161519 | 47 | 294 | 9.0 | 16.0 | 0.00 | 0.00 | 0.00 | 39 | 1012.4 |
| 20260505153012 | 46 | 316 | 6.0 | 16.0 | 0.00 | 0.00 | 0.00 | 42 | 1012.3 |
| 20260505151513 | 46 | 285 | 6.0 | 17.0 | 0.00 | 0.00 | 0.00 | 44 | 1012.1 |
| 20260505124535 | 40 | 355 | 4.0 | 11.0 | 0.00 | 0.00 | 0.00 | 49 | 1010.9 |
| 20260505123025 | 40 | 340 | 5.0 | 11.0 | 0.00 | 0.00 | 0.00 | 51 | 1010.6 |
| 20260505121522 | 40 | 304 | 5.0 | 12.0 | 0.00 | 0.00 | 0.00 | 55 | 1010.4 |
| 20260505120018 | 39 | 323 | 4.0 | 12.0 | 0.00 | 0.00 | 0.00 | 56 | 1010.2 |
| 20260505114514 | 39 | 313 | 5.0 | 13.0 | 0.00 | 0.00 | 0.00 | 59 | 1010.0 |
| 20260505113009 | 39 | 338 | 6.0 | 10.0 | 0.00 | 0.00 | 0.00 | 61 | 1009.6 |
| 20260505111506 | 39 | 304 | 1.0 | 10.0 | 0.00 | 0.00 | 0.00 | 63 | 1009.5 |
| 20260505101558 | 40 | 325 | 3.0 | 9.0 | 0.00 | 0.00 | 0.00 | 63 | 1009.1 |
| 20260505100056 | 40 | 314 | 4.0 | 9.0 | 0.00 | 0.00 | 0.00 | 63 | 1009.0 |
| 20260505094554 | 40 | 319 | 4.0 | 10.0 | 0.00 | 0.00 | 0.00 | 62 | 1008.9 |
| 20260505093052 | 40 | 301 | 4.0 | 9.0 | 0.00 | 0.00 | 0.00 | 62 | 1008.7 |
| 20260505091607 | 41 | 298 | 4.0 | 10.0 | 0.00 | 0.00 | 0.00 | 60 | 1008.7 |
| 20260505090047 | 41 | 290 | 3.0 | 12.0 | 0.00 | 0.00 | 0.00 | 59 | 1008.5 |
| 20260505084544 | 41 | 322 | 5.0 | 13.0 | 0.00 | 0.00 | 0.00 | 57 | 1008.3 |
| 20260505083041 | 42 | 325 | 6.0 | 14.0 | 0.00 | 0.00 | 0.00 | 56 | 1008.1 |
| 20260505081540 | 42 | 292 | 6.0 | 12.0 | 0.00 | 0.00 | 0.00 | 54 | 1007.9 |
| 20260505080038 | 42 | 300 | 6.0 | 15.0 | 0.00 | 0.00 | 0.00 | 53 | 1007.9 |
| 20260505074536 | 42 | 355 | 7.0 | 14.0 | 0.00 | 0.00 | 0.00 | 53 | 1007.7 |